Location: Bassano
(45.7667°N, 11.7333°E)
Time: 12:24:01
(UTC+00:00)

Landsat 5 - Pass Details

Date: 07 June 2020
Orbit: 528 x 655 km, 98.2° (Epoch: 01 July)

Event Time Altitude Azimuth Distance (km) Brightness Sun altitude
Rises 02:40:07 0° 169° (S) 2,966 6.7 -6.8°
Reaches altitude 10° 02:42:20 10° 171° (S) 2,057 5.9 -6.5°
Maximum altitude 02:46:51 75° 257° (WSW) 674 3.6 -5.9°
Drops below altitude 10° 02:51:18 10° 343° (NNW) 2,035 6.6 -5.3°
Sets 02:53:30 0° 345° (NNW) 2,932 7.4 -5.0°
